Tracking 27422 objects as of 30-May-2023
HD Live streaming from Space Station
objects crossing your sky now

RAX-2

Track RAX-2 now!
10-day predictions
RAX-2 is classified as:


NORAD ID: 37853
Int'l Code: 2011-061D
Perigee: 425.5 km
Apogee: 600.8 km
Inclination: 101.7 °
Period: 94.7 minutes
Semi major axis: 6884 km
RCS: 0.0758 m2 (small)
Launch date: October 28, 2011
Source: United States (US)
Launch site: AIR FORCE WESTERN TEST RANGE (AFWTR)

Uplink (MHz):
Downlink (MHz): 437.345
Beacon (MHz):
Mode: 9600bps GMSK
Call sign:
Status: Inactive

Your satellite tracking list
Your tracking list is empty




NASA's NSSDC Master Catalog

Two Line Element Set (TLE):
1 37853U 11061D   23150.37509534  .00014783  00000-0  55734-3 0  9992
2 37853 101.7022  84.3078 0127334 125.5593 235.7576 15.19954896633645
Source of the keplerian elements: AFSPC